www.pogodaiklimat.ru

Погода и климат >> Архив погоды >> Россия >> Забайкальский край >> Ксеньевская


ПОГОДА в Ксеньевской

  • Прогноз погоды в Ксеньевской
  • Монитор погоды в Ксеньевской
  • Саммари погоды в Ксеньевской
  • Климат Ксеньевской
  • Веб-камера в Ксеньевской

АРХИВ ПОГОДЫ в Ксеньевской

Время (UTC), дата Ветер
(напр.,м/с)
 
Видим.   Явления Облачность Т
(С)
Тd
(С)
f
(%)
Тe
(С)
Тes
(С)
Комфортность P
(гПа)
Po
(гПа)
Тmin
(С)
Tmax
(С)
R
(мм)
R24
(мм)
S
(см)
03 14.09 ЮЗ 5 50 км 6 баллов +12.3 +0.4 44 +10 +12 1008.6 941.3
06 14.09 ЮЗ 6 50 км в посл. час ливневой дождь 10 баллов +12.0 -1.2 40 +10 +10 1005.9 938.7
09 14.09 Ю 1 4000 м слаб. ливневой дождь 10 баллов +7.5 +5.0 84 +7 +7 1006.9 938.7
12 14.09 З 1 н/о 4 балла +4.1 +2.5 89 +3 +3 1006.3 937.3 +14.3 2
15 14.09 З 1 н/о 6 баллов +3.5 +2.2 91 +2 +2 1005.1 936.0
18 14.09 В 1 н/о 2 балла +1.2 0.0 92 -1 -1 1004.3 934.7
21 14.09 З 5 н/о 7 баллов +3.2 -6.5 49 -1 -1 1005.3 936.0
00 15.09 З 5 50 км 4 балла +2.5 -10.7 37 -2 -1 1006.9 937.3 +0.8
03 15.09 З 7 50 км 10 баллов +1.5 -6.8 54 -5 -5 1008.6 938.7
06 15.09 З 8 50 км 6 баллов +7.2 -11.5 25 +3 +4 1007.2 938.7
09 15.09 СЗ 5 50 км 2 балла +7.6 -11.7 24 +5 +5 1008.5 940.0
12 15.09 Ю 1 н/о 2 балла +0.3 -8.4 52 -1 -1 1013.2 942.7 +8.6 0.0
15 15.09 штиль 0 н/о ясно -4.1 -7.5 77 -5 -5 1015.8 944.0
18 15.09 штиль 0 н/о ясно -6.3 -8.0 88 -7 -7 1016.4 944.0
21 15.09 штиль 0 н/о 2 балла -7.9 -9.5 88 -9 -9 1016.9 944.0
00 16.09 штиль 0 50 км 2 балла -2.9 -6.7 75 -4 -2 1015.5 944.0 -8.2
03 16.09 С 1 50 км 4 балла +8.0 -7.7 32 +8 +13 1011.2 942.7
06 16.09 Ю 6 50 км 6 баллов +12.2 -7.2 25 +10 +11 1008.7 941.3
09 16.09 ЮЗ 4 50 км 7 баллов +10.7 -4.9 33 +9 +9 1007.7 940.0
12 16.09 СВ 1 н/о 10 баллов +8.2 -1.6 50 +8 +8 1008.2 940.0 +12.7
15 16.09 С 2 н/о слаб. ливневой дождь 10 баллов +4.4 +2.3 86 +2 +2 1009.2 940.0
18 16.09 С 3 н/о ливневой дождь 10 баллов +1.6 -0.3 87 -3 -3 1011.3 941.3
21 16.09 С 2 н/о слаб. ливневой дождь 10 баллов +1.7 -0.2 87 -2 -2 1014.2 944.0
00 17.09 С 1 50 км 5 баллов +4.0 +0.2 76 +3 +4 1016.5 946.7 +0.6 11
03 17.09 С 4 50 км 6 баллов +7.0 -2.7 50 +4 +6 1017.1 948.0
06 17.09 СЗ 6 50 км 7 баллов +8.5 -6.5 34 +5 +6 1016.8 948.0
12 17.09 СЗ 1 н/о 4 балла +3.5 -8.2 42 +3 +3 1021.0 950.7 +9.0 0.4
15 17.09 штиль 0 н/о ясно -2.9 -6.4 77 -4 -4 1024.1 952.0
18 17.09 СВ 1 н/о ясно -4.3 -7.6 78 -6 -6 1024.5 952.0
21 17.09 штиль 0 н/о 2 балла -6.7 -8.3 88 -8 -8 1026.6 953.3
00 18.09 штиль 0 50 км 4 балла -2.5 -6.1 76 -3 -2 1025.4 953.3 -7.1
03 18.09 Ю 1 50 км 7 баллов +7.1 -8.1 33 +7 +10 1021.5 952.0
06 18.09 З 3 50 км 5 баллов +11.0 -7.3 27 +10 +12 1017.6 949.3
09 18.09 штиль 0 50 км 7 баллов +11.6 -5.0 31 +12 +12 1017.4 949.3
12 18.09 штиль 0 н/о 10 баллов +6.6 -2.3 53 +6 +6 1018.6 949.3 +13.0
15 18.09 Ю 1 н/о 7 баллов +2.6 -1.7 73 +1 +1 1018.3 948.0
18 18.09 штиль 0 н/о 6 баллов -0.8 -3.2 84 -2 -2 1019.2 948.0
21 18.09 Ю 1 н/о 4 балла -3.4 -4.8 90 -6 -6 1019.9 948.0
00 19.09 штиль 0 50 км 4 балла +0.8 -2.8 77 -0 +1 1017.4 946.7 -4.1
03 19.09 ЮЗ 2 50 км 6 баллов +11.3 -0.5 44 +11 +13 1013.1 945.3
06 19.09 ЮЗ 3 50 км 10 баллов +15.7 +0.7 36 +15 +15 1010.7 944.0
09 19.09 ЮВ 2 50 км 10 баллов +10.0 +6.7 80 +9 +9 1012.0 944.0
12 19.09 З 2 н/о в посл. час ливневой дождь 9 баллов +6.7 +4.5 86 +4 +4 1014.2 945.3 +16.5 2
15 19.09 штиль 0 н/о дымка 2 балла +2.7 +1.4 91 +2 +2 1016.8 946.7
18 19.09 ЮЗ 1 н/о слаб. морось н/о +1.6 +0.4 92 -0 1018.5 948.0
21 19.09 Ю 1 н/о слаб. морось н/о +0.1 -0.9 93 -2 1021.8 950.7
00 20.09 СВ 1 500 м туман н/о +0.7 -0.3 93 -1 1024.4 953.3 -0.8 0.4
03 20.09 СВ 2 50 км 6 баллов +8.3 +1.2 61 +7 +10 1022.5 953.3
06 20.09 Ю 2 50 км 7 баллов +10.3 -2.4 41 +9 +11 1022.0 953.3
09 20.09 Ю 1 50 км 5 баллов +12.7 -3.6 32 +13 +14 1020.0 952.0
12 20.09 Ю 1 н/о 4 балла +3.3 -2.0 68 +2 +2 1023.8 953.3 +13.2
15 20.09 штиль 0 н/о 2 балла +0.1 -2.3 84 -1 -1 1024.6 953.3
18 20.09 В 1 н/о ясно -2.9 -4.2 91 -5 -5 1025.5 953.3

 

Местоположение метеостанции Ксеньевская (Забайкальский край, Россия): широта 53.55 долгота 118.70 высота над уровнем моря 582 м.

В архиве по умолчанию представлена погода в Ксеньевской за последнюю неделю. Архивные данные за месяц целиком и за предыдущие месяцы, начиная с января 2011 года, Вы можете получить, выбрав интересующий диапазон дат из раскрывающегося списка и нажав кнопку "Ввод!".


*Определитесь, кто Вы:
робот инопланетянин человек

Внимание! Время в таблицах - всемирное. Для получения местного времени необходимо прибавить поправку, которая равна 9 ч.

Смотрите также архив погоды в соседних городах и на ближайших метеорологических станциях:

Погода в Могоче (Забайкальский край, Россия) (70 км)
Погода в Усть-Карске (Забайкальский край, Россия) (95 км)
Погода в Урюпино (Забайкальский край, Россия) (124 км)
Погода в Тупике (Забайкальский край, Россия) (125 км)
Погода в Амазаре (Забайкальский край, Россия) (143 км)
Погода в Чернышевске (Забайкальский край, Россия) (161 км)
Погода в Сретенске (Забайкальский край, Россия) (161 км)
Погода в Усть-Каренге (Забайкальский край, Россия) (174 км)
Погода в Зилово (Забайкальский край, Россия) (183 км)
Погода в Покровке (Забайкальский край, Россия) (187 км)

Пояснения к столбцам:

Ветер - указаны скорость ветра в м/с - средняя за 10 мин, порывы в срок и между сроками (в фигурных скобках) и направление, откуда дует ветер: С - северный, СВ - северо-восточный, В - восточный, ЮВ - юго-восточный, Ю - южный, ЮЗ - юго-западный, З - западный, СЗ - северо-западный.
Видимость - горизонтальная дальность видимости в метрах или километрах. При видимости от 1 до 10 км при отсутствии осадков обычно наблюдается дымка, при ухудшении видимости до 1 км и менее - туман. В сухую погоду видимость может ухудшаться дымом, пылью или мглою.
Явления - указаны атмосферные явления, наблюдавшиеся в срок или в последний час перед сроком; фигурными скобками обозначены явления, наблюдавшиеся между сроками (за 1-3 часа до срока); квадратными скобками обозначены град или гололедные отложения с указанием их диаметра в мм.
Облачность - указаны через наклонную черту общая и нижняя облачность в баллах и высота нижней границы облаков в метрах; квадратными скобками обозначены формы облаков: Ci - перистые, Cs - перисто-слоистые, Cc - перисто-кучевые, Ac - высококучевые, As - высокослоистые, Sc - слоисто-кучевые, Ns - слоисто-дождевые, Cu - кучевые, Cb - кучево-дождевые. Подробнее классификацию облаков см. в Атласе облаков (PDF).
T - Температура воздуха - температура, измеренная на высоте 2 м над землей.
Td - Температура точки росы - температура, при понижении до которой содержащийся в воздухе водяной пар достигнет насыщения.
f - Относительная влажность воздуха - влажноcть воздуха, измеренная на высоте 2 м над землей.
Te - Эффективная температура - температура, которую ощущает одетый по сезону человек в тени. Характеристика душности погоды. При расчете учитывается влияние влажности воздуха и скорости ветра на теплоощущения человека.
Tes - Эффективная температура на солнце - температура, которую ощущает человек, с поправкой на солнечный нагрев. Характеристика знойности погоды. Зависит от высоты солнца над горизонтом, облачности и скорости ветра. Ночью, в пасмурную погоду, а также при ветре 12 м/с и более поправка равна нулю.
P - Атмосферное давление - приведенное к уровню моря атмосферное давление.
Po - Атмосферное давление - измеренное на уровне метеостанции атмосферное давление.
Tmin - Минимальная температура - минимум температуры воздуха на высоте 2 м над землей.
Tmax - Максимальная температура - максимум температуры воздуха на высоте 2 м над землей.
R - Количество осадков - Количество выпавших осадков за период времени, мм. При наведении курсора мыши на число - период времени, за который выпало указанное количество осадков.
R24 - Количество осадков - Количество выпавших осадков за 24 часа, мм.
S - Снежный покров - Высота снежного покрова, см. При наведении курсора мыши на число - состояние снежного покрова и степень покрытия местности в баллах.